Location: Olomouc
(49.5830°N, 17.2500°E)
Time: 04:24:52
(UTC+01:00)

ISS - Pass Details

Date: 31 October 2021
Orbit: 417 x 423 km, 51.6° (Epoch: 01 December)

Event Time Altitude Azimuth Distance (km) Brightness Sun altitude
Exits shadow 05:20:56 23° 289° (WNW) 942 -2.6 -12.9°
Maximum altitude 05:22:49 58° 1° (N) 494 -3.5 -12.6°
Drops below altitude 10° 05:26:09 10° 83° (E) 1,501 0.4 -12.1°
Sets 05:28:16 0° 87° (E) 2,363 1.9 -11.8°
